Regional Weather Roundup
Issued by NWS

Home | Current Version | Previous Version | Graphics & Text | Print | Product List | Glossary Off
Versions: 1 2 3 4 5 6 7 8 9 10 11 12 13 14 15 16 17 18 19 20 21 22 23 24 25 26 27 28 29 30 31 32 33 34 35 36 37 38 39 40 41 42 43 44 45 46 47 48 49 50

000
ASUS43 KMKX 072100
RWRWI

WISCONSIN REGIONAL WEATHER ROUNDUP
NATIONAL WEATHER SERVICE MILWAUKEE/SULLIVAN WI
300 PM CST SUN FEB 07 2016

NOTE: "FAIR" INDICATES FEW OR NO CLOUDS BELOW 12,000 FEET WITH NO
SIGNIFICANT WEATHER AND/OR OBSTRUCTIONS TO VISIBILITY.

WIZ001-002-006>008-014>016-023>028-072200-
NORTHWEST WISCONSIN

CITY           SKY/WX    TMP DP  RH WIND       PRES   REMARKS
SUPERIOR ARPT  DRIZZLE   35  33  94 SW9       29.48S WCI  27
ASHLAND        CLOUDY    37  32  82 SW9       29.48S WCI  30
HAYWARD        LGT SNOW  34  31  88 SW7       29.51R FOG     WCI  28
SIREN          MIX PCPN  35  32  90 W10       29.55R WCI  27
CUMBERLAND     LGT RAIN  34  28  80 W17G24    29.54R WCI  23
RICE LAKE      CLOUDY    38  27  66 W9G16     29.56R WCI  31
CHETEK         CLOUDY    39  27  63 W10G17    29.55S WCI  32
LADYSMITH      CLOUDY    38  29  72 W16G22    29.55R WCI  28
EAU CLAIRE     NOT AVBL
MENOMONIE      CLOUDY    40  26  55 W14G25    29.59S WCI  33
NEW RICHMOND   CLOUDY    39  26  61 W16G23    29.57S WCI  30
OSCEOLA        CLOUDY    39  28  65 W13       29.60R WCI  31
$$

WIZ003>005-009-010-017-018-072200-
NORTH CENTRAL WISCONSIN

CITY           SKY/WX    TMP DP  RH WIND       PRES   REMARKS
MANITOWISH WTR LGT SNOW  33  32  97 W7        29.47R WCI  27
ARBOR VITAE    LGT SNOW  37  34  91 W8        29.48S WCI  30
WOODRUFF       LGT SNOW  37  34  91 W8        29.48S WCI  30
RHINELANDER    CLOUDY    34  30  85 W10       29.50S WCI  26
EAGLE RIVER    MIX PCPN  32  32  99 SW6       29.48S WCI  27
LAND O LAKES   MIX PCPN  33  32  97 SW5       29.48S WCI  28
PHILLIPS       CLOUDY    35  30  82 SW8       29.50R WCI  28
TOMAHAWK       FLURRIES  35  29  79 W5        29.51S WCI  31
MEDFORD        CLOUDY    36  28  73 SW8       29.53R WCI  29
MERRILL        CLOUDY    37  29  75 W9G17     29.54R WCI  30
$$

WIZ029-030-035-036-043>047-072200-
CENTRAL WISCONSIN

CITY           SKY/WX    TMP DP  RH WIND       PRES   REMARKS
WAUSAU         CLOUDY    39  28  64 SW15G22   29.54R WCI  31
MOSINEE        CLOUDY    37  28  70 SW12      29.57R WCI  30
MARSHFIELD     CLOUDY    39  26  59 W13       29.55S WCI  31
STEVENS POINT  CLOUDY    37  27  66 W7        29.57S WCI  32
WAUPACA        CLOUDY    42  29  61 W9        29.59S
WAUTOMA        NOT AVBL
WISC RAPIDS    CLOUDY    41  26  55 W12       29.59S
CAMP DOUGLAS   NOT AVBL
$$

WIZ011>013-019>022-031-037>040-048>050-072200-
NORTHEAST WISCONSIN

CITY           SKY/WX    TMP DP  RH WIND       PRES   REMARKS
ANTIGO         CLOUDY    35  29  80 W14       29.52S WCI  25
SHAWANO        CLOUDY    41  30  66 SW9       29.57S
OCONTO         CLOUDY    39  31  72 SW9       29.58R WCI  33
STURGEON BAY   CLOUDY    39  28  65 S9        29.60S WCI  33
GREEN BAY      CLOUDY    40  30  67 W10       29.59R WCI  33
MANITOWOC      NOT AVBL
APPLETON       PTSUNNY   39  27  60 SW13      29.58R WCI  32
CLINTONVILLE   CLOUDY    37  28  70 W9        29.58R WCI  31
OSHKOSH        MOSUNNY   41  29  62 SW8       29.60S
$$

WIZ032>034-041-042-053>061-072200-
SOUTHWEST WISCONSIN

CITY           SKY/WX    TMP DP  RH WIND       PRES   REMARKS
LA CROSSE      MOSUNNY   40  25  55 W22       29.65S WCI  30
SPARTA         SUNNY     42  27  55 SW12G20   29.63S
VIROQUA        SUNNY     37  26  65 W13G20    29.64S WCI  29
BOSCOBEL       SUNNY     43  25  49 W22G29    29.70R
PRAIRIE DU CHI SUNNY     40  25  54 W15G25    29.72R WCI  32
PLATTEVILLE    SUNNY     39  28  63 W17G26    29.70S WCI  30
$$

WIZ056-057-062-063-064-067-068-072200-
SOUTH CENTRAL WISCONSIN

CITY           SKY/WX    TMP DP  RH WIND       PRES   REMARKS
REEDSBURG      MOSUNNY   40  28  61 W13       29.64R WCI  33
BARABOO/DELLS  MOSUNNY   40  26  58 W14       29.62S WCI  32
LONE ROCK      CLOUDY    41  25  53 W18G25    29.67S
MINERAL POINT  SUNNY     37  28  70 W17       29.68R WCI  28
MADISON        PTSUNNY   40  27  59 SW8       29.65R WCI  34
MIDDLETON      SUNNY     42  29  59 SW16      29.65R
WATERTOWN      SUNNY     41  31  67 SW12      29.65R
MONROE         SUNNY     41  28  60 W25       29.69R
JANESVILLE     SUNNY     45  30  57 W13G18    29.68S
$$

WIZ051-052-058>065-066-070>072-072200-
SOUTHEAST WISCONSIN

CITY           SKY/WX    TMP DP  RH WIND       PRES   REMARKS
MILWAUKEE      MOSUNNY   45  31  58 SW16      29.66R
WAUKESHA       MOSUNNY   41  30  65 SW13G23   29.66R
MILWAUKEE/TIMM NOT AVBL
RACINE         CLOUDY    44  31  60 SW15G25   29.68R
BURLINGTON     SUNNY     42  31  66 SW13      29.67F
KENOSHA        CLOUDY    43  32  65 SW12      29.68R
FOND DU LAC    SUNNY     41  30  65 SW10      29.62R
SHEBOYGAN      PTSUNNY   40  30  67 W13       29.62R WCI  32
WEST BEND      MOSUNNY   41  30  65 W13G23    29.63R
JUNEAU         SUNNY     39  30  69 SW15      29.64S WCI  31
$$

LSZ147-162-072200-
LAKE SUPERIOR

STATION/POSITION TIME  TEMP    WIND        PRES    WAVE
                       AIR SEA DIR/SP/G            HT/PER
                 (UTC) (F)     (DEG/KT/KT) (MB)    (FT/S)
DEVILS ISLAND    2000   35     240/ 19/ 22  997.7S
PORT WING        2040   37     220/  8/ 15  998.3S
SAXON HARBOR     2040   37                  998.0S
$$

LMZ867-665-643>646-072200-
LAKE MICHIGAN

STATION/POSITION TIME  TEMP    WIND        PRES    WAVE
                       AIR SEA DIR/SP/G            HT/PER
                 (UTC) (F)     (DEG/KT/KT) (MB)    (FT/S)
CHAMBERS ISLAND  2000   37     190/  6/ 11 1001.7R
NORTHPORT PIER   2000   42     170/  3/  8 1001.0F
KEWAUNEE LAKESHO 2000   41     240/  7/ 14 1001.5R
SHEBOYGAN LAKESH 2000   42     220/ 14/ 16 1003.5R
PORT WASHINGTON  2000   45     240/  8/ 15 1004.1F
MILWAUKEE LAKESH 2010   44     230/ 15/ 19   N/A
KENOSHA   LAKESH 2000   41     220/ 13/ 19 1005.1F
$$

TC  - TEMPERATURE IN CELSIUS
VSB - VISIBILITY IN STATUTE MILES
WCI - WIND CHILL INDEX
HX  - HEAT INDEX




USA.gov is the U.S. government's official web portal to all federal, state and local government web resources and services.